STARLINK-2185, 47767

Orbit data source: Space-Track

STARLINK-2185, 47767 is a payload satellite owned by SpaceX/Seattle (US) in LEO that was launched on Thu, 04 Mar 2021 UTC via an FALCON 9 launch vehicle from the Air Force Eastern Test Range (AFETR). Payload-class satellites include a variety of spacecraft equipped with specific instruments for various scientific and technological missions. These include communications satellites like Starlink; space stations such as the ISS; scientific satellites like the Hubble; Earth observation satellites from companies like Planet Labs, Umbra, and HawkEye 360; GPS; miniature CubeSats for education and research; and military/defense satellites.

Loading next visibility...
Identifier
47767, 2021-017AX
Orbit
LEO
Country
Flag of USUS
Related business
Manufacturer
SpaceX/Seattle
Mission
Operational Commercial Communications
Bus & Motor
STARLINK, Unknown motor
Mass
260 kg wet, ~248 kg dry
Launch date (UTC)
2021-03-04 (5 years ago)
Launch vehicle
FALCON 9
Launch site
Air Force Eastern Test Range (AFETR)
Object type
Payload
Rocket body
Debris
Shape & HBR
Box + 1 Pan, 10.1 m
Radar Cross Section
13.562 m², Large (>1 m²)

Expand to show TLE details & history
Last TLE update: 11 hours ago

TLE from 11 hours ago
0 STARLINK-2185
1 47767U 21017AX  25346.98171196  .00002758  00000-0  20396-3 0  9999
2 47767  53.0543 240.8657 0000911  83.3449 276.7644 15.06398186264710
Epoch: 2025-12-12T23:33Z
TLE epoch observation values (Epoch: 2025-12-12T23:33:39.913Z)
Latitude
0.00001°
Longitude
165.53387°
Altitude
548.022 km
Speed
7.589 km/s
True Right ascension
16h 03m 27s
True Declination
0° 00' 00"
Sunlit
Object was in daylight at epoch
Visualization orbit readout
Latitude
Unknown
Longitude
Unknown
Altitude
Unknown
Speed
Unknown
Apparent Right ascension
Unknown
Apparent Declination
Unknown
Sunlit
N/A
Visualization observer readout
Local Sidereal Time
09:19:33
Azimuth
Unknown
Elevation
Unknown
Doppler factor
Unknown
Orbital elements
Apogee altitude
548.119 km
Perigee altitude
546.857 km
Semi-major axis
6,925.625 km
Eccentricity
0.00009
Inclination
53.0543°
RAAN
240.8657°
Arg. of periapsis
83.3449°
True anomaly
276.75403°
Mean anomaly
276.7644°
Eccentric anomaly
276.75922°
Mean motion
3.76578 °/min
Orbital period
95.6 mins
BSTAR
0.00020396
Loading maneuver chart data...
Computing Atmospheric mass density...
Loading historical data...
Loading historical data...
Loading historical data...
Loading historical data...
Loading historical data...
Loading historical data...
Loading historical data...

Documentation

Showing up to 5 results
|